Location: Noordwijk
(52.2400°N, 4.4500°E)
Time: 04:40:08
(UTC+00:00)

PCSat - Visible Passes

Search period start: 03 December 2023 00:00
Search period end: 13 December 2023 00:00
Orbit: 784 x 792 km, 67.1° (Epoch: 02 December)

Date Brightness Start Highest point End Pass type
(mag) Time Alt. Az. Time Alt. Az. Time Alt. Az.
03 Dec 11.9 03:21:56 15° SE 03:23:55 19° ESE 03:27:34 10° ENE visible
03 Dec 9.5 05:02:43 20° SW 05:06:33 88° SE 05:12:01 10° NE visible
03 Dec 10.5 06:45:54 10° W 06:50:35 29° NNW 06:55:17 10° NNE visible
04 Dec 12.2 02:52:36 14° ESE 02:52:41 14° ESE 02:55:19 10° ENE visible
04 Dec 9.7 04:33:21 43° SSW 04:35:05 70° ESE 04:40:30 10° NE visible
04 Dec 10.3 06:14:06 11° W 06:18:53 33° NW 06:23:48 10° NNE visible
05 Dec 10.1 04:03:39 54° ESE 04:03:39 54° ESE 04:08:56 10° NE visible
05 Dec 10.0 05:44:23 23° W 05:47:13 40° NW 05:52:20 10° NNE visible
06 Dec 11.0 03:33:44 34° E 03:33:44 34° E 03:37:20 10° NE visible
06 Dec 9.8 05:14:27 41° WNW 05:15:36 48° NW 05:20:52 10° NNE visible
07 Dec 11.9 03:03:39 20° ENE 03:03:39 20° ENE 03:05:39 10° NE visible
07 Dec 9.6 04:44:21 58° NNW 04:44:21 58° NNW 04:49:24 10° NE visible
07 Dec 10.9 06:25:04 13° WNW 06:28:27 22° NNW 06:32:41 10° NNE visible
08 Dec 12.5 02:33:27 12° ENE 02:33:27 12° ENE 02:33:52 10° ENE visible
08 Dec 10.3 04:14:09 45° NNE 04:14:09 45° NNE 04:17:55 10° NE visible
08 Dec 10.7 05:54:50 21° NW 05:56:41 25° NNW 06:01:10 10° NNE visible
09 Dec 11.2 03:43:50 29° NE 03:43:50 29° NE 03:46:25 10° NE visible
09 Dec 10.5 05:24:31 28° NW 05:24:57 29° NNW 05:29:40 10° NNE visible
10 Dec 11.9 03:13:28 18° NE 03:13:28 18° NE 03:14:52 10° NE visible
10 Dec 10.5 04:54:09 32° NNW 04:54:09 32° NNW 04:58:12 10° NNE visible
10 Dec 11.2 06:34:50 11° NW 06:38:14 18° N 06:41:53 10° NNE visible
11 Dec 12.4 02:43:01 11° NE 02:43:01 11° NE 02:43:18 10° NE visible
11 Dec 10.9 04:23:42 29° N 04:23:42 29° N 04:26:43 10° NNE visible
11 Dec 11.1 06:04:23 16° NW 06:06:24 19° NNW 06:10:13 10° NNE visible
12 Dec 11.4 03:53:13 22° NNE 03:53:13 22° NNE 03:55:14 10° NNE visible
12 Dec 11.0 05:33:53 20° NNW 05:34:35 20° NNW 05:38:36 10° NNE visible
